Hourly Data Report for October 14, 2016

All times are specified in Local Standard Time (LST). Add 1 hour to adjust for Daylight Saving Time where and when it is observed.

KITCHENER/WATERLOO
ONTARIO

43°27'39.000" N
80°22'43.000" W
321.60 m
6144239
71368
YKF

Download Data

Hourly Data (October 2016)
Hourly Data Report for October 14, 2016
Temp Definition
°C
Dew Point Temp Definition
°C
Rel Hum Definition
%
Wind Dir Definition
10's deg

Wind Spd Definition
km/h
Visibility Definition
km
Stn Press Definition
kPa
Hmdx Definition


Wind Chill Definition


Weather Definition


TIME
00:00 Legend Double Dagger 0.0 -0.3 98   0 2.4 98.85     Fog
01:00 Legend Double Dagger -0.1 -0.4 98   0 8.1 98.87     Fog
02:00 Legend Double Dagger -0.3 -0.4 99 LegendMM 4 16.1 98.88   -2 LegendNANA
03:00 Legend Double Dagger 1.0 0.7 98 LegendMM 4 16.1 98.89     LegendNANA
04:00 Legend Double Dagger 2.3 1.7 96 19 5 16.1 98.90     LegendNANA
05:00 Legend Double Dagger 4.3 2.3 87 18 5 16.1 98.95     LegendNANA
06:00 Legend Double Dagger 4.4 2.5 87 LegendMM 4 16.1 98.96     LegendNANA
07:00 Legend Double Dagger 3.9 1.9 87   0 16.1 99.01     LegendNANA
08:00 Legend Double Dagger 7.0 2.1 71 18 9 16.1 99.03     LegendNANA
09:00 Legend Double Dagger 9.7 3.2 64 19 9 16.1 99.05     LegendNANA
10:00 Legend Double Dagger 11.8 2.5 53 22 15 16.1 99.04     LegendNANA
11:00 Legend Double Dagger 12.5 2.5 50 19 15 16.1 99.01     LegendNANA
12:00 Legend Double Dagger 13.5 1.9 45 19 8 16.1 98.97     LegendNANA
13:00 Legend Double Dagger 13.9 2.4 46 21 9 16.1 98.87     LegendNANA
14:00 Legend Double Dagger 14.5 2.9 46 21 5 16.1 98.82     LegendNANA
15:00 Legend Double Dagger 14.6 3.2 46 LegendMM 8 16.1 98.79     LegendNANA
16:00 Legend Double Dagger 14.7 3.8 48 20 5 16.1 98.76     LegendNANA
17:00 Legend Double Dagger 13.0 4.1 54 18 9 16.1 98.77     LegendNANA
18:00 Legend Double Dagger 10.4 5.0 69 15 17 16.1 98.76     LegendNANA
19:00 Legend Double Dagger 9.6 5.0 73 16 11 16.1 98.79     LegendNANA
20:00 Legend Double Dagger 9.1 4.4 72 17 11 16.1 98.76     LegendNANA
21:00 Legend Double Dagger 6.8 4.1 83 11 8 16.1 98.73     LegendNANA
22:00 Legend Double Dagger 5.2 3.5 88 4 5 16.1 98.69     LegendNANA
23:00 Legend Double Dagger 5.4 3.5 87   0 16.1 98.64     LegendNANA

Notes on Data Quality.

Legend

  • E = Estimated
  • M = Missing
  • NA = Not Available
  • ‡ = Partner data that is not subject to review by the National Climate Archives
Date modified: